TimeEST,TemperatureF,Dew PointF,Humidity,Sea Level PressureIn,VisibilityMPH,Wind Direction,Wind SpeedMPH,Gust SpeedMPH,PrecipitationIn,Events,Conditions,WindDirDegrees,DateUTC
12:51 AM,41.0,30.0,65,30.32,10.0,SSE,8.1,-,N/A,,Partly Cloudy,150,2011-12-04 05:51:00
1:51 AM,43.0,30.0,60,30.29,10.0,SSE,11.5,-,N/A,,Partly Cloudy,160,2011-12-04 06:51:00
2:51 AM,43.0,30.0,60,30.28,10.0,SSE,10.4,19.6,N/A,,Scattered Clouds,150,2011-12-04 07:51:00
3:51 AM,42.1,30.0,62,30.26,10.0,SSE,11.5,-,N/A,,Scattered Clouds,160,2011-12-04 08:51:00
4:51 AM,43.0,30.0,60,30.25,10.0,SSE,11.5,-,N/A,,Mostly Cloudy,160,2011-12-04 09:51:00
5:51 AM,42.8,28.4,57,30.23,10.0,SSE,11.5,-,N/A,,Scattered Clouds,160,2011-12-04 10:51:00
6:51 AM,43.0,28.0,56,30.25,10.0,SSE,12.7,19.6,N/A,,Mostly Cloudy,160,2011-12-04 11:51:00
7:51 AM,44.1,27.0,51,30.25,10.0,South,12.7,-,N/A,,Mostly Cloudy,170,2011-12-04 12:51:00
8:51 AM,46.0,27.0,47,30.25,10.0,SSE,12.7,-,N/A,,Mostly Cloudy,160,2011-12-04 13:51:00
9:51 AM,50.0,26.1,39,30.27,10.0,SSW,11.5,16.1,N/A,,Mostly Cloudy,200,2011-12-04 14:51:00
10:51 AM,53.1,28.0,38,30.25,10.0,SSW,11.5,24.2,N/A,,Mostly Cloudy,210,2011-12-04 15:51:00
11:51 AM,57.0,32.0,39,30.21,10.0,SSW,19.6,26.5,N/A,,Mostly Cloudy,200,2011-12-04 16:51:00
12:51 PM,55.9,34.0,44,30.18,10.0,SSW,15.0,31.1,N/A,,Mostly Cloudy,200,2011-12-04 17:51:00
1:51 PM,57.9,37.0,46,30.18,10.0,SSW,11.5,19.6,N/A,,Overcast,210,2011-12-04 18:51:00
2:51 PM,57.0,37.0,47,30.18,10.0,SSW,11.5,20.7,N/A,,Overcast,200,2011-12-04 19:51:00
3:51 PM,55.9,37.9,51,30.20,10.0,SW,9.2,18.4,N/A,,Overcast,220,2011-12-04 20:51:00
4:51 PM,55.0,37.0,51,30.21,10.0,SW,12.7,-,N/A,,Overcast,220,2011-12-04 21:51:00
5:51 PM,54.0,37.0,53,30.22,10.0,SSW,5.8,-,N/A,,Overcast,200,2011-12-04 22:51:00
6:51 PM,54.0,37.9,55,30.24,10.0,SW,13.8,17.3,0.00,,Overcast,220,2011-12-04 23:51:00
7:51 PM,52.0,41.0,66,30.26,10.0,SSW,10.4,-,0.00,Rain,Light Rain,210,2011-12-05 00:51:00
8:09 PM,51.8,42.8,71,30.24,10.0,SSW,6.9,-,0.00,Rain,Light Rain,200,2011-12-05 01:09:00
8:51 PM,51.1,44.1,77,30.23,10.0,SSW,6.9,-,0.00,,Overcast,210,2011-12-05 01:51:00
9:51 PM,50.0,45.0,83,30.23,10.0,SW,4.6,-,N/A,,Overcast,220,2011-12-05 02:51:00
10:51 PM,50.0,44.1,80,30.22,10.0,Calm,Calm,-,N/A,,Overcast,0,2011-12-05 03:51:00
11:51 PM,50.0,44.1,80,30.21,10.0,Calm,Calm,-,N/A,,Overcast,0,2011-12-05 04:51:00